FLOCK 1E-3

Last updated on May 29, 2016, 5:36 p.m. UTC

1 40725U 98067GH  16150.36970261  .14796048  12413-4  11119-2 0  9994
2 40725  51.6148 108.5624 0004633 287.2102  73.5048 16.39693208 50356

Satellite is not in orbit.